Regional Weather Roundup
Issued by NWS

Home | Current Version | Previous Version | Graphics & Text | Print | Product List | Glossary On
Versions: 1 2 3 4 5 6 7 8 9 10 11 12 13 14 15 16 17 18 19 20 21 22 23 24 25 26 27 28 29 30 31 32 33 34 35 36 37 38 39 40 41 42 43 44 45 46 47 48 49 50
000
ASUS43 KFSD 020402
RWRSD

WEATHER ROUNDUP FOR SOUTH DAKOTA
NATIONAL WEATHER SERVICE SIOUX FALLS SD
1000 PM CST SUN MAR 01 2015

NOTE: "FAIR" INDICATES FEW OR NO CLOUDS BELOW 12,000 FEET WITH NO
SIGNIFICANT WEATHER AND/OR OBSTRUCTIONS TO VISIBILITY.


SDZ001>005-009-010-012>017-020500-
NORTHWEST AND NORTH CENTRAL SOUTH DAKOTA

CITY           SKY/WX    TMP DP  RH WIND       PRES   REMARKS
BUFFALO          N/A     15   7  70 S7        30.19F WCI   5
FAITH            N/A     19   6  57 N3        30.32S
MOBRIDGE       PTCLDY    10   7  87 CALM      30.36R
$$

SDZ012>016-024>037-041>051-057-063-072>074-020500-
SOUTHWEST AND SOUTH CENTRAL SOUTH DAKOTA

CITY           SKY/WX    TMP DP  RH WIND       PRES   REMARKS
RAPID CTY ARPT PTCLDY     7   3  84 CALM      30.31S
PIERRE         CLEAR     15  11  83 CALM      30.40R
CUSTER         PTCLDY     6   2  83 CALM      30.15F
ELLSWORTH AFB  PTCLDY    15   7  71 NW1       30.29S
PHILIP         PTCLDY    12   4  70 W6        30.37R WCI   3
PINE RIDGE     MOCLDY    17   8  67 NE7       30.31S WCI   8
WINNER         FAIR      20   3  48 CALM      30.39R
$$

SDZ004>011-016>023-039-040-020500-
NORTHEAST SOUTH DAKOTA

CITY           SKY/WX    TMP DP  RH WIND       PRES   REMARKS
ABERDEEN       CLEAR      7   3  84 CALM      30.42R
WATERTOWN      CLEAR     11   7  84 W8        30.38R WCI  -1
SISSETON         N/A     13   6  74 NW9       30.40R WCI   1
$$

SDZ017-020-022-023-036>040-048>070-020500-
SOUTHEAST SOUTH DAKOTA

CITY           SKY/WX    TMP DP  RH WIND       PRES   REMARKS
SIOUX FALLS    CLEAR     15  10  80 W6        30.42R WCI   6
HURON          CLEAR     11   8  88 N3        30.44R
MITCHELL       CLEAR     19  12  74 CALM      30.45R
YANKTON        CLEAR     16   9  73 N9        30.45R WCI   4
$$

ABBREVIATIONS USED IN REMARKS
   TC - TEMPERATURE IN CELSIUS
  WCI - WIND CHILL INDEX
   HX - HEAT INDEX
  VSB - VISIBILITY



USA.gov is the U.S. government's official web portal to all federal, state and local government web resources and services.